Flag for Yemen Weather past 2 weeks in Ta'izz, Yemen

Now
68 °F

Scattered clouds.


Feels Like: 68 °F
Forecast: 68 / 86 °F
Wind: 6 mph from East

Location: Taiz

Current Time: Aug 20, 2014 at 8:33:37 AM

Latest Report: Aug 20, 2014 at 8:00 AM


Visibility: N/A

Pressure: 30.07 "Hg

Humidity: 78%

Dew point: 61 °F

Location of Ta'izzLocation

Historic Weather in Ta'izz — Graph

°F

Ta'izz temperature yesterday

Maximum temperature yesterday: 86 °F (at 12:00 PM)
Minimum temperature yesterday: 63 °F (at 6:00 PM)
Average temperature yesterday: 73 °F

Past Weeks' High & Low Weather Summary

 TemperatureHumidityPressure
High88 °F (Aug 6, 12:00 PM)100% (Aug 19, 6:00 PM)30.07 "Hg (Aug 19, 6:00 PM)
Low63 °F (Aug 19, 6:00 PM)29% (Aug 6, 12:00 PM)29.86 "Hg (Aug 17, 4:20 PM)
Average76 °F58%29.97 "Hg
* Reported Aug 5 7:00 AM — Aug 20 7:00 AM, Ta'izz, Weather by CustomWeather, © 2014

Note: Actual official high and low records may vary slightly from our data, if they occured in-between our weather recording intervals... More about our weather records

Advertising

Ta'izz weather history for previous 24 hours

 ConditionsComfort  
Time TempWeatherWind HumidityBarometerVisibility
7:00 AM
Aug 20
68 °FPassing clouds.6 mph73%30.07 "HgN/A
6:00 AM64 °FSunny.6 mph83%30.04 "Hg10 mi
5:00 AM64 °FClear.5 mph83%30.04 "Hg10 mi
1:00 AM66 °FClear.No wind78%30.01 "Hg10 mi
12:00 AM64 °FClear.6 mph88%30.01 "Hg10 mi
11:00 PM
Aug 19
66 °FClear.No wind78%30.01 "Hg10 mi
10:00 PM70 °FPassing clouds.5 mph64%30.04 "HgN/A
9:00 PM70 °FPartly cloudy.6 mph69%30.04 "HgN/A
8:00 PM68 °FThunderstorms. Partly cloudy.10 mph78%30.04 "HgN/A
7:00 PM66 °FThunderstorms. Partly cloudy.8 mph94%30.04 "HgN/A
6:00 PM63 °FRain. Scattered clouds.12 mph100%30.04 "HgN/A
5:00 PM72 °FThunderstorms. Scattered clouds.12 mph73%29.98 "HgN/A
4:00 PM70 °FThunderstorms. Broken clouds.14 mph78%29.98 "HgN/A
3:00 PM77 °FThunderstorms. Scattered clouds.7 mph69%29.95 "Hg5 mi
2:00 PM75 °FScattered clouds.9 mph74%29.98 "Hg5 mi
1:00 PM84 °FScattered clouds.6 mph43%30.01 "HgN/A
12:00 PM86 °FScattered clouds.N/A40%30.01 "Hg5 mi
11:00 AM84 °FPassing clouds.8 mph45%30.07 "Hg4 mi
10:00 AM82 °FPassing clouds.3 mph48%30.07 "Hg4 mi
9:00 AM79 °FClear.5 mph54%30.07 "Hg4 mi
8:00 AM75 °FClear.3 mph61%30.07 "Hg4 mi
Weather by CustomWeather, © 2014

See weather overviewHow to use our weather pages